Flag for Turkey Weather past 2 weeks in Bursa, Turkey

Now
77 °F

Passing clouds.


Feels Like: 78 °F
Forecast: 61 / 88 °F
Wind: 6 mph from Northeast

Location: Bursa

Current Time: Jul 6, 2015 at 11:58:49 PM

Latest Report: Jul 6, 2015 at 9:00 PM


Visibility: 13 mi

Pressure: 30.01 "Hg

Humidity: 59%

Dew point: 61 °F

Location of BursaLocation

Historic Weather in Bursa — Graph

°F

Bursa temperature yesterday

Maximum temperature yesterday: 80 °F (at 4:00 PM)
Minimum temperature yesterday: 63 °F (at 6:00 AM)
Average temperature yesterday: 76 °F

Past Weeks' High & Low Weather Summary

 TemperatureHumidityPressure
High85 °F (Jul 6, 4:00 PM)98% (Jun 24, 5:00 AM)30.16 "Hg (Jun 24, 5:00 AM)
Low59 °F (Jun 29, 5:00 AM)38% (Jun 30, 2:00 PM)29.77 "Hg (Jun 27, 3:00 PM)
Average72 °F67%29.97 "Hg
* Reported Jun 21 9:00 PM — Jul 6 9:00 PM, Bursa, Weather by CustomWeather, © 2015

Note: Actual official high and low records may vary slightly from our data, if they occured in-between our weather recording intervals... More about our weather records

Advertising

Bursa weather history for previous 24 hours

 ConditionsComfort  
Time TempWeatherWind HumidityBarometerVisibility
9:00 PM
Mon, Jul 6
77 °FPassing clouds.6 mph59%30.01 "Hg12 mi
8:00 PM79 °FScattered clouds.9 mph56%30.00 "Hg12 mi
7:00 PM82 °FPassing clouds.10 mph52%29.99 "Hg12 mi
6:00 PM83 °FPassing clouds.14 mph49%29.99 "Hg12 mi
5:00 PM84 °FPassing clouds.12 mph48%29.99 "Hg12 mi
4:00 PM85 °FScattered clouds.12 mph47%29.99 "Hg12 mi
3:00 PM84 °FScattered clouds.9 mph48%30.00 "Hg12 mi
2:00 PM84 °FScattered clouds.10 mph48%30.01 "Hg12 mi
1:00 PM83 °FScattered clouds.9 mph47%30.03 "Hg12 mi
12:00 PM82 °FPassing clouds.6 mph48%30.03 "Hg12 mi
11:00 AM79 °FSunny.2 mph56%30.04 "Hg12 mi
10:00 AM76 °FSunny.3 mph65%30.04 "Hg9 mi
9:00 AM73 °FSunny.3 mph70%30.05 "Hg9 mi
6:00 AM61 °FSunny.1 mph95%30.04 "Hg9 mi
3:00 AM65 °FClear.1 mph90%30.03 "Hg9 mi
12:00 AM69 °FClear.3 mph80%30.04 "Hg9 mi
Weather by CustomWeather, © 2015

See weather overviewHow to use our weather pages